Regional Weather Roundup
Issued by NWS Little Rock, AR

Home | Current Version | Previous Version | Graphics & Text | Print | Product List | Glossary On
Versions: 1 2 3 4 5 6 7 8 9 10 11 12 13 14 15 16 17 18 19 20 21 22 23 24 25 26 27 28 29 30 31 32 33 34 35 36 37 38 39 40 41 42 43 44 45 46 47 48
000
ASUS44 KLZK 272205
RWRLZK

WEATHER ROUNDUP FOR ARKANSAS
NATIONAL WEATHER SERVICE LITTLE ROCK AR
400 PM CST FRI FEB 27 2015

NOTE: "FAIR" INDICATES FEW OR NO CLOUDS BELOW 12,000 FEET WITH NO
SIGNIFICANT WEATHER AND/OR OBSTRUCTIONS TO VISIBILITY.

ARZ001-003-010-029-272300-
NORTHWEST ARKANSAS

CITY           SKY/WX    TMP DP  RH WIND       PRES   REMARKS
FAYETTEVILLE   LGT SNOW  19  15  84 NE6       30.49F FOG     WCI  11
FORT SMITH     SNOW      22  18  85 E9        30.53F VSB 1/2 WCI  12
HARRISON       LGT SNOW  19   7  59 E7        30.51F WCI  10
BENTONVILLE    CLOUDY    18  12  79 E9        30.49F VSB 3/4 WCI   6
ROGERS         LGT SNOW  16  12  86 E7        30.49F VSB 1   WCI   6
SILOAM SPGS    CLOUDY    19   7  58 NE7       30.49F WCI  10
HIGHFILL       LGT SNOW  18  14  84 E9        30.48F VSB 3/4 WCI   7
SPRINGDALE     LGT SNOW  19   9  63 E10       30.50F WCI   8
$$

ARZ004-005-016-272300-
NORTH CENTRAL ARKANSAS

CITY           SKY/WX    TMP DP  RH WIND       PRES   REMARKS
BATESVILLE     CLOUDY    27   7  43 E6        30.59R WCI  20
FLIPPIN        CLOUDY    21   1  42 CALM      30.56S
MTN HOME       FLURRIES  21   4  47 E6        30.55S WCI  13
$$

ARZ040-041-272300-
WEST CENTRAL ARKANSAS

CITY           SKY/WX    TMP DP  RH WIND       PRES   REMARKS
MENA           CLOUDY    27  23  86 NE6       30.46F WCI  20
MOUNT IDA      CLOUDY    29   9  43 VRB3      30.46F
$$

ARZ009-017-025-026-028-272300-
NORTHEAST ARKANSAS

CITY           SKY/WX    TMP DP  RH WIND       PRES   REMARKS
JONESBORO      CLOUDY    23  14  68 NE12      30.61R WCI  12
NEWPORT        CLOUDY    25  13  60 N9        30.62R WCI  16
WALNUT RIDGE   CLOUDY    25  10  54 N9        30.63R WCI  15
BLYTHEVILLE    CLOUDY    27  16  63 NE14      30.58S WCI  16
$$

ARZ022-023-033-042-044-272300-
CENTRAL ARKANSAS

CITY           SKY/WX    TMP DP  RH WIND       PRES   REMARKS
LITTLE ROCK    CLOUDY    30   5  34 NE9       30.57F WCI  22
N LITTLE ROCK  CLOUDY    29  13  50 NE10      30.57F WCI  20
JACKSONVILLE   CLOUDY    29   6  37 NE7       30.55F WCI  22
SEARCY         CLOUDY    26   9  48 N9        30.62R WCI  17
HOT SPRINGS    CLOUDY    29   9  43 NE10      30.52F WCI  20
RUSSELLVILLE   CLOUDY    29   5  36 N8        30.53F WCI  21
CLINTON        FAIR      28   1  31 W5        30.58F WCI  23
$$

ARZ036-272300-
EAST ARKANSAS

CITY           SKY/WX    TMP DP  RH WIND       PRES   REMARKS
WEST MEMPHIS   PTSUNNY   29  20  69 N12       30.54R WCI  19
$$

ARZ050-053-066-070-073-272300-
SOUTHWEST ARKANSAS

CITY           SKY/WX    TMP DP  RH WIND       PRES   REMARKS
ARKADELPHIA    FAIR      31  14  49 NE9       30.53F WCI  23
CAMDEN         CLOUDY    32  14  47 MISG      30.51F
TEXARKANA      CLOUDY    30  16  56 NE12      30.47F WCI  20
EL DORADO      CLOUDY    32  18  56 NE10      30.48F WCI  24
DE QUEEN       LGT SNOW  28  20  71 NE9       30.48F VSB 3/4 WCI  19
$$

ARZ056-057-069-272300-
SOUTHEAST ARKANSAS

CITY           SKY/WX    TMP DP  RH WIND       PRES   REMARKS
PINE BLUFF     CLOUDY    28  17  63 N10       30.57R WCI  19
STUTTGART      CLOUDY    28  16  59 N14       30.58R WCI  17
MONTICELLO     CLOUDY    32  19  58 N6        30.52R WCI  26

$$





USA.gov is the U.S. government's official web portal to all federal, state and local government web resources and services.